{"data":{"norad_id":67674,"intl_designator":"2026-023A","name":"COSMOS 2600","alt_names":[],"object_type":"PAYLOAD","status":"ACTIVE","operator":null,"country":"CIS","launch_date":"2026-02-05","launch_site_code":"PLMSC","launch_vehicle":null,"mission":null,"orbit_class":"UNKNOWN","rcs_meters":null,"size_class":null,"mass_kg":null,"dimensions":null,"purposes":[],"wikipedia_slug":null,"has_3d_model":false,"image_url":null,"decayed_at":null,"tle_current":{"epoch":"2026-09-20T22:35:17.409408Z","epoch_age_seconds":51155,"freshness":"FRESH","line1":"1 67674U 26023A   26263.94117372  .00041052  00000+0  19446-3 0  9994","line2":"2 67674  96.7518 334.8832 0005039 196.9127 163.1977 15.82876865 35931","mean_motion":15.82876865,"eccentricity":0.0005039,"inclination_deg":96.7518,"raan_deg":334.8832,"arg_perigee_deg":196.9127,"mean_anomaly_deg":163.1977,"bstar":0.00019446,"rev_number":3593,"period_min":90.973595725654,"perigee_km":318.93329462266,"apogee_km":325.68600475621,"semimajor_km":6700.4466496894,"source":"CELESTRAK","updated_at":"2026-09-21T09:00:16.775899Z"}}}